Weather Roundup
Issued by NWS Springfield, MO

Home | Current Version | Previous Version | Text Only | Print | Product List | Glossary On
Versions: 1 2 3 4 5 6 7 8 9 10 11 12 13 14 15 16 17 18 19 20 21 22 23 24 25 26 27 28 29 30 31 32 33 34 35 36 37 38 39 40 41 42 43 44 45 46 47 48 49 50
000
NZUS99 KSGF 241657
HRRSGF

HOURLY WEATHER
NATIONAL WEATHER SERVICE SPRINGFIELD MO
1200 PM CDT TUE MAY 24 2016

......SGF CWA......

CITY           SKY/WX    TMP DP  RH WIND       PRES   REMARKS
SPRINGFIELD    CLOUDY    73  65  75 S8        30.00R
JOPLIN         TSTM      66  64  93 N13       30.01R FOG
WEST PLAINS    CLOUDY    71  64  78 S8        30.04F
ROLLA          RAIN      69  66  90 S7        30.01R FOG
BRANSON        PTSUNNY   81  66  61 S10G17    30.02R

......SURROUNDING SGF CWA......

CITY           SKY/WX    TMP DP  RH WIND       PRES   REMARKS
CHANUTE        CLOUDY    69  63  81 E10       29.96R
PARSONS        CLOUDY    70  67  90 NE6       29.98R
COFFEYVILLE    CLOUDY    78  70  76 W6        29.95R
EMPORIA        MOSUNNY   73  61  65 NE13      29.95S
HARRISON AR    PTSUNNY   81  64  56 SW8G17    30.01R

......KANSAS AND MISSOURI......

CITY           SKY/WX    TMP DP  RH WIND       PRES   REMARKS
KANSAS CTY INT CLOUDY    70  62  76 N3        29.93F
SEDALIA        CLOUDY    71  66  84 SE15      30.00R
ST JOSEPH      PTSUNNY   70  59  68 SW3       29.93F
ST LOUIS       PTSUNNY   81  60  48 S8        30.01F
WICHITA        MOSUNNY   76  66  71 E13       29.92F
TOPEKA         CLOUDY    72  61  68 W8        29.94R
OLATHE         CLOUDY    70  63  78 E7        29.95F

......TENNESSEE......

CITY           SKY/WX    TMP DP  RH WIND       PRES   REMARKS
MEMPHIS        NOT AVBL
NASHVILLE      MOSUNNY   85  51  31 S9        30.13S

......ARKANSAS.......

CITY           SKY/WX    TMP DP  RH WIND       PRES   REMARKS
FAYETTEVILLE   MOSUNNY   80  69  69 S12       29.99R
FT SMITH       CLOUDY    84  69  60 S10       29.95F
LITTLE ROCK    PTSUNNY   83  69  62 SW13      30.04S

......OKLAHOMA.......

CITY           SKY/WX    TMP DP  RH WIND       PRES   REMARKS
TULSA          PTSUNNY   83  70  64 SW8       29.91S
PONCA CITY     CLOUDY    75  69  81 E8        29.92R
MCALESTER      CLOUDY    77  70  79 S6        29.97S
OKLAHOMA CITY  MOSUNNY   84  71  65 S15G24    29.90S

......IOWA............

CITY           SKY/WX    TMP DP  RH WIND       PRES   REMARKS
DES MOINES     NOT AVBL
QUAD CITIES    PTSUNNY   82  59  45 S10       29.94S

......ILLINOIS........

CITY           SKY/WX    TMP DP  RH WIND       PRES   REMARKS
QUINCY         NOT AVBL
CHICAGO        MOSUNNY   80  54  40 SW15      29.99S



USA.gov is the U.S. government's official web portal to all federal, state and local government web resources and services.